Home   Weather   Joinville   Past weeks

Flag for Brazil Past Weather in Joinville, Santa Catarina, Brazil — Yesterday and Last 2 Weeks

Now
72 °F

Clear.


Feels Like: 77 °F
Forecast: N/A
Wind: 6 mph from West

Location: Curitiba Aeroporto

Current Time: Sep 28, 2016 at 7:25:31 PM

Latest Report: Sep 28, 2016 at 7:00 PM


Visibility: 10 mi

Pressure: 30.07 "Hg

Humidity: 38%

Dew Point: 45 °F

Location of JoinvilleLocation

Past Weather in Joinville — Graph

°F

Joinville Temperature Yesterday

Maximum temperature yesterday: 72 °F (at 2:00 PM)
Minimum temperature yesterday: 50 °F (at 6:00 AM)
Average temperature yesterday: 58 °F

High & Low Weather Summary for the Past Weeks

 TemperatureHumidityPressure
High81 °F (Sep 18, 11:00 AM)100% (Sep 15, 10:00 PM)30.30 "Hg (Sep 15, 10:00 PM)
Low41 °F (Sep 15, 6:00 AM)20% (Sep 14, 3:00 PM)29.86 "Hg (Sep 13, 6:00 PM)
Average58 °F75%30.13 "Hg
* Reported Sep 13 6:00 PM — Sep 28 6:00 PM, Joinville, Weather by CustomWeather, © 2016

Note: Actual official high and low records may vary slightly from our data, if they occured in-between our weather recording intervals... More about our weather records

Advertising

Joinville Weather History for the Previous 24 Hours

Scroll right to see more
 ConditionsComfort  
Time TempWeatherWind HumidityBarometerVisibility
6:00 PM
Wed, Sep 28
75 °FSunny.7 mph29%30.07 "Hg10 mi
5:00 PM77 °FSunny.8 mph30%30.07 "Hg10 mi
4:00 PM79 °FSunny.7 mph26%30.07 "Hg10 mi
3:00 PM77 °FSunny.7 mph28%30.07 "Hg10 mi
2:00 PM77 °FSunny.5 mph28%30.09 "Hg10 mi
1:00 PM73 °FSunny.3 mph36%30.12 "Hg10 mi
12:00 PM72 °FSunny.3 mph41%30.15 "Hg10 mi
11:00 AM68 °FSunny.6 mph53%30.18 "Hg10 mi
10:00 AM63 °FSunny.5 mph59%30.18 "Hg10 mi
9:00 AM61 °FSunny.2 mph68%30.21 "Hg10 mi
8:00 AM57 °FScattered clouds.5 mph77%30.18 "HgN/A
7:00 AM54 °FMore clouds than sun.3 mph82%30.18 "HgN/A
6:00 AM54 °FMore clouds than sun.6 mph82%30.15 "Hg5 mi
5:00 AM54 °FLow clouds.8 mph82%30.15 "HgN/A
4:00 AM54 °FLow clouds.2 mph88%30.15 "HgN/A
3:00 AM54 °FLow clouds.3 mph88%30.12 "HgN/A
2:00 AM54 °FPassing clouds.6 mph94%30.15 "HgN/A
1:00 AM52 °FPassing clouds.7 mph94%30.15 "Hg5 mi
12:00 AM52 °FLow clouds.3 mph100%30.18 "Hg4 mi
11:00 PM
Tue, Sep 27
54 °FLow clouds.5 mph94%30.18 "Hg4 mi
10:00 PM52 °FPassing clouds.6 mph100%30.18 "Hg5 mi
9:00 PM54 °FPassing clouds.6 mph94%30.18 "HgN/A
8:00 PM54 °FPassing clouds.7 mph94%30.18 "HgN/A
7:00 PM57 °FPassing clouds.8 mph82%30.15 "HgN/A
Weather by CustomWeather, © 2016

See weather overviewHow to use our weather pages